Weather Roundup
Issued by NWS Corpus Christi, TX

Home | Current Version | Previous Version | Text Only | Print | Product List | Glossary On
Versions: 1 2 3 4 5 6 7 8 9 10 11 12 13 14 15 16 17 18 19 20 21 22 23 24 25 26 27 28 29 30 31 32 33 34 35 36 37 38 39 40 41 42 43 44 45 46 47 48 49 50
000
ASUS44 KCRP 051510
HRRCRP

SOUTH TEXAS REGIONAL WEATHER ROUNDUP
NATIONAL WEATHER SERVICE CORPUS CHRISTI TX
1000 AM CDT TUE MAY 05 2015


TXZ229>244-051600-
...CORPUS CHRISTI AREA OBSERVATIONS...

CITY           SKY/WX    TMP DP  RH WIND       PRES   REMARKS
CORPUS CHRISTI PTSUNNY   78  69  73 SE17      29.95S
NAS CORPUS CHR PTSUNNY   77  72  84 SE22      29.96R
ROCKPORT       CLOUDY    79  70  74 SE16      29.96R
KINGSVILLE NAS PTSUNNY   81  71  71 SE18G26   29.95R
ALICE          PTSUNNY   80  68  66 SE17G25   29.94R
FALFURRIAS     CLOUDY    79  70  73 SE12      29.93R
$$

...VICTORIA AREA OBSERVATIONS...

CITY           SKY/WX    TMP DP  RH WIND       PRES   REMARKS
VICTORIA       CLOUDY    76  70  82 SE14      29.99S
BEEVILLE       PTSUNNY   78  72  82 SE14      29.97S
PLEASANTON     RAIN      74  67  78 SE10G17   29.97R
SAN ANTONIO    CLOUDY    74  66  76 SE17      29.98S
$$

...LAREDO AREA OBSERVATIONS...

CITY           SKY/WX    TMP DP  RH WIND       PRES   REMARKS
LAREDO         PTSUNNY   76  68  76 SE14      29.93R
COTULLA        CLOUDY    76  66  71 SE21      29.93S
DEL RIO        CLOUDY    70  66  87 SE13      29.90R
MCALLEN        CLOUDY    81  71  71 SE16G25   29.91S
HEBBRONVILLE     N/A     73  68  83 SE8       29.94S
$$

...OTHER TEXAS OBSERVATIONS...

CITY           SKY/WX    TMP DP  RH WIND       PRES   REMARKS
BROWNSVILLE    PTSUNNY   81  71  71 SE22G31   29.92S
HOUSTON        LGT RAIN  73  71  93 SE12G22   30.04R
COL. STATION   PTSUNNY   75  67  76 SE15G23   30.03S
AUSTIN         PTSUNNY   75  66  73 SE21      29.98F
WACO           CLOUDY    70  64  81 SE20      30.02F
FORT WORTH     PTSUNNY   70  62  76 SE13      30.03S
WICHITA FALLS  LGT RAIN  62  60  93 E15       29.99F FOG
LUBBOCK        LGT RAIN  56  52  86 NE13G21   29.87F
EL PASO        MOSUNNY   66  40  38 W9        29.97R
$$

...MARINE OBSERVATIONS...

STATION/POSITION TIME  SKY/WX   TEMP    WIND        PRES    VSBY  WAVE   SWELL
                                AIR SEA DIR/SP/G                  HT/PER HT/PER
                 (UTC)          (F)     (DEG/KT/KT) (MB)    (MI)  (FT/S) (FT/S)
PORT ARANSAS     1500            75 75  120/ 16/ 18 1015.2R
BUOY 90 E PORT A 1450            77 75  130/ 14/ 16 1015.9S         4/ 6   2/ 9
BUOY 45 SE BAFFI 1450            75 75  130/ 16/ 19 1013.8R         4/ 6
BUOY 200 E PT IS 1450            78 76  120/ 16/ 17 1016.2R         5/ 6   2/ 8
BUOY 15 E GALVES 1450            76 75  110/ 19/ 21 1017.0R         5/ 5   2/ 9
$$



USA.gov is the U.S. government's official web portal to all federal, state and local government web resources and services.